Year,Month,Day,Hour,Minute,Value (Times are PST for barometer in hPa)
2008,01,05,00,00,969.93
2008,01,05,00,01,969.90
2008,01,05,00,02,969.93
2008,01,05,00,03,969.96
2008,01,05,00,04,969.92
2008,01,05,00,05,969.86
2008,01,05,00,06,969.91
2008,01,05,00,07,970.00
2008,01,05,00,08,969.96
2008,01,05,00,09,969.96
2008,01,05,00,10,969.94
2008,01,05,00,11,970.00
2008,01,05,00,12,969.97
2008,01,05,00,13,970.03
2008,01,05,00,14,969.99
2008,01,05,00,15,969.93
2008,01,05,00,16,969.88
2008,01,05,00,17,970.01
2008,01,05,00,18,970.14
2008,01,05,00,19,970.20
2008,01,05,00,20,970.23
2008,01,05,00,21,970.20
2008,01,05,00,22,970.17
2008,01,05,00,23,970.17
2008,01,05,00,24,970.14
2008,01,05,00,25,970.22
2008,01,05,00,26,970.17
2008,01,05,00,27,970.13
2008,01,05,00,28,970.13
2008,01,05,00,29,970.14
2008,01,05,00,30,970.20
2008,01,05,00,31,970.23
2008,01,05,00,32,970.23
2008,01,05,00,33,970.27
2008,01,05,00,34,970.23
2008,01,05,00,35,970.27
2008,01,05,00,36,970.31
2008,01,05,00,37,970.40
2008,01,05,00,38,970.47
2008,01,05,00,39,970.48
2008,01,05,00,40,970.57
2008,01,05,00,41,970.55
2008,01,05,00,42,970.61
2008,01,05,00,43,970.56
2008,01,05,00,44,970.51
2008,01,05,00,45,970.52
2008,01,05,00,46,970.64
2008,01,05,00,47,970.71
2008,01,05,00,48,970.71
2008,01,05,00,49,970.75
2008,01,05,00,50,970.84
2008,01,05,00,51,970.88
2008,01,05,00,52,970.88
2008,01,05,00,53,970.89
2008,01,05,00,54,970.95
2008,01,05,00,55,970.95
2008,01,05,00,56,970.95
2008,01,05,00,57,970.95
2008,01,05,00,58,970.98
2008,01,05,00,59,970.94
2008,01,05,01,00,970.89
2008,01,05,01,01,970.98
2008,01,05,01,02,970.91
2008,01,05,01,03,970.91
2008,01,05,01,04,970.95
2008,01,05,01,05,970.96
2008,01,05,01,06,971.02
2008,01,05,01,07,971.09
2008,01,05,01,08,971.17
2008,01,05,01,09,971.05
2008,01,05,01,10,971.00
2008,01,05,01,11,970.93
2008,01,05,01,12,971.05
2008,01,05,01,13,971.08
2008,01,05,01,14,971.05
2008,01,05,01,15,971.12
2008,01,05,01,16,971.18
2008,01,05,01,17,971.19
2008,01,05,01,18,971.28
2008,01,05,01,19,971.32
2008,01,05,01,20,971.32
2008,01,05,01,21,971.32
2008,01,05,01,22,971.33
2008,01,05,01,23,971.39
2008,01,05,01,24,971.45
2008,01,05,01,25,971.49
2008,01,05,01,26,971.57
2008,01,05,01,27,971.62
2008,01,05,01,28,971.67
2008,01,05,01,29,971.72
2008,01,05,01,30,971.69
2008,01,05,01,31,971.69
2008,01,05,01,32,971.66
2008,01,05,01,33,971.69
2008,01,05,01,34,971.67
2008,01,05,01,35,971.73
2008,01,05,01,36,971.78
2008,01,05,01,37,971.69
2008,01,05,01,38,971.66
2008,01,05,01,39,971.68
2008,01,05,01,40,971.83
2008,01,05,01,41,971.79
2008,01,05,01,42,971.76
2008,01,05,01,43,971.79
2008,01,05,01,44,971.89
2008,01,05,01,45,971.89
2008,01,05,01,46,971.89
2008,01,05,01,47,971.90
2008,01,05,01,48,972.01
2008,01,05,01,49,972.06
2008,01,05,01,50,972.13
2008,01,05,01,51,972.13
2008,01,05,01,52,972.16
2008,01,05,01,53,972.23
2008,01,05,01,54,972.27
2008,01,05,01,55,972.28
2008,01,05,01,56,972.33
2008,01,05,01,57,972.33
2008,01,05,01,58,972.31
2008,01,05,01,59,972.41
2008,01,05,02,00,972.47
2008,01,05,02,01,972.48
2008,01,05,02,02,972.62
2008,01,05,02,03,972.74
2008,01,05,02,04,972.74
2008,01,05,02,05,972.67
2008,01,05,02,06,972.66
2008,01,05,02,07,972.57
2008,01,05,02,08,972.49
2008,01,05,02,09,972.39
2008,01,05,02,10,972.30
2008,01,05,02,11,972.37
2008,01,05,02,12,972.37
2008,01,05,02,13,972.32
2008,01,05,02,14,972.23
2008,01,05,02,15,972.23
2008,01,05,02,16,972.31
2008,01,05,02,17,972.50
2008,01,05,02,18,972.51
2008,01,05,02,19,972.62
2008,01,05,02,20,972.74
2008,01,05,02,21,972.82
2008,01,05,02,22,972.91
2008,01,05,02,23,972.98
2008,01,05,02,24,973.02
2008,01,05,02,25,973.12
2008,01,05,02,26,973.21
2008,01,05,02,27,973.28
2008,01,05,02,28,973.32
2008,01,05,02,29,973.32
2008,01,05,02,30,973.28
2008,01,05,02,31,973.25
2008,01,05,02,32,973.21
2008,01,05,02,33,973.25
2008,01,05,02,34,973.33
2008,01,05,02,35,973.42
2008,01,05,02,36,973.41
2008,01,05,02,37,973.32
2008,01,05,02,38,973.27
2008,01,05,02,39,973.18
2008,01,05,02,40,973.18
2008,01,05,02,41,973.15
2008,01,05,02,42,973.21
2008,01,05,02,43,973.21
2008,01,05,02,44,973.21
2008,01,05,02,45,973.26
2008,01,05,02,46,973.35
2008,01,05,02,47,973.35
2008,01,05,02,48,973.42
2008,01,05,02,49,973.45
2008,01,05,02,50,973.46
2008,01,05,02,51,973.59
2008,01,05,02,52,973.59
2008,01,05,02,53,973.55
2008,01,05,02,54,973.62
2008,01,05,02,55,973.62
2008,01,05,02,56,973.59
2008,01,05,02,57,973.59
2008,01,05,02,58,973.59
2008,01,05,02,59,973.65
2008,01,05,03,00,973.62
2008,01,05,03,01,973.65
2008,01,05,03,02,973.65
2008,01,05,03,03,973.65
2008,01,05,03,04,973.69
2008,01,05,03,05,973.69
2008,01,05,03,06,973.77
2008,01,05,03,07,973.86
2008,01,05,03,08,973.89
2008,01,05,03,09,973.82
2008,01,05,03,10,973.86
2008,01,05,03,11,973.89
2008,01,05,03,12,973.96
2008,01,05,03,13,973.99
2008,01,05,03,14,973.99
2008,01,05,03,15,974.03
2008,01,05,03,16,974.06
2008,01,05,03,17,974.10
2008,01,05,03,18,974.13
2008,01,05,03,19,974.16
2008,01,05,03,20,974.14
2008,01,05,03,21,974.23
2008,01,05,03,22,974.20
2008,01,05,03,23,974.25
2008,01,05,03,24,974.17
2008,01,05,03,25,974.26
2008,01,05,03,26,974.24
2008,01,05,03,27,974.31
2008,01,05,03,28,974.40
2008,01,05,03,29,974.40
2008,01,05,03,30,974.40
2008,01,05,03,31,974.41
2008,01,05,03,32,974.47
2008,01,05,03,33,974.50
2008,01,05,03,34,974.50
2008,01,05,03,35,974.57
2008,01,05,03,36,974.57
2008,01,05,03,37,974.50
2008,01,05,03,38,974.49
2008,01,05,03,39,974.40
2008,01,05,03,40,974.43
2008,01,05,03,41,974.51
2008,01,05,03,42,974.60
2008,01,05,03,43,974.60
2008,01,05,03,44,974.64
2008,01,05,03,45,974.64
2008,01,05,03,46,974.67
2008,01,05,03,47,974.67
2008,01,05,03,48,974.67
2008,01,05,03,49,974.64
2008,01,05,03,50,974.64
2008,01,05,03,51,974.67
2008,01,05,03,52,974.65
2008,01,05,03,53,974.74
2008,01,05,03,54,974.82
2008,01,05,03,55,974.91
2008,01,05,03,56,974.94
2008,01,05,03,57,974.98
2008,01,05,03,58,974.94
2008,01,05,03,59,975.01
2008,01,05,04,00,975.01
2008,01,05,04,01,975.08
2008,01,05,04,02,974.98
2008,01,05,04,03,974.98
2008,01,05,04,04,974.98
2008,01,05,04,05,975.09
2008,01,05,04,06,975.12
2008,01,05,04,07,975.17
2008,01,05,04,08,975.04
2008,01,05,04,09,975.08
2008,01,05,04,10,975.11
2008,01,05,04,11,975.18
2008,01,05,04,12,975.22
2008,01,05,04,13,975.35
2008,01,05,04,14,975.31
2008,01,05,04,15,975.38
2008,01,05,04,16,975.38
2008,01,05,04,17,975.46
2008,01,05,04,18,975.55
2008,01,05,04,19,975.59
2008,01,05,04,20,975.65
2008,01,05,04,21,975.69
2008,01,05,04,22,975.65
2008,01,05,04,23,975.72
2008,01,05,04,24,975.75
2008,01,05,04,25,975.79
2008,01,05,04,26,975.86
2008,01,05,04,27,975.86
2008,01,05,04,28,975.86
2008,01,05,04,29,975.80
2008,01,05,04,30,975.89
2008,01,05,04,31,975.96
2008,01,05,04,32,975.89
2008,01,05,04,33,975.78
2008,01,05,04,34,975.68
2008,01,05,04,35,975.46
2008,01,05,04,36,975.56
2008,01,05,04,37,975.69
2008,01,05,04,38,975.73
2008,01,05,04,39,975.87
2008,01,05,04,40,976.04
2008,01,05,04,41,976.27
2008,01,05,04,42,976.37
2008,01,05,04,43,976.47
2008,01,05,04,44,976.47
2008,01,05,04,45,976.43
2008,01,05,04,46,976.53
2008,01,05,04,47,976.51
2008,01,05,04,48,976.64
2008,01,05,04,49,976.76
2008,01,05,04,50,976.62
2008,01,05,04,51,976.53
2008,01,05,04,52,976.52
2008,01,05,04,53,976.40
2008,01,05,04,54,976.33
2008,01,05,04,55,976.33
2008,01,05,04,56,976.33
2008,01,05,04,57,976.36
2008,01,05,04,58,976.43
2008,01,05,04,59,976.43
2008,01,05,05,00,976.47
2008,01,05,05,01,976.51
2008,01,05,05,02,976.60
2008,01,05,05,03,976.70
2008,01,05,05,04,976.63
2008,01,05,05,05,976.63
2008,01,05,05,06,976.63
2008,01,05,05,07,976.67
2008,01,05,05,08,976.70
2008,01,05,05,09,976.77
2008,01,05,05,10,976.84
2008,01,05,05,11,976.91
2008,01,05,05,12,976.87
2008,01,05,05,13,976.84
2008,01,05,05,14,976.80
2008,01,05,05,15,976.87
2008,01,05,05,16,976.91
2008,01,05,05,17,976.87
2008,01,05,05,18,976.94
2008,01,05,05,19,976.91
2008,01,05,05,20,976.87
2008,01,05,05,21,976.84
2008,01,05,05,22,976.87
2008,01,05,05,23,976.91
2008,01,05,05,24,976.87
2008,01,05,05,25,976.80
2008,01,05,05,26,976.74
2008,01,05,05,27,976.80
2008,01,05,05,28,976.84
2008,01,05,05,29,976.91
2008,01,05,05,30,976.94
2008,01,05,05,31,976.97
2008,01,05,05,32,977.04
2008,01,05,05,33,977.04
2008,01,05,05,34,977.15
2008,01,05,05,35,977.28
2008,01,05,05,36,977.31
2008,01,05,05,37,977.35
2008,01,05,05,38,977.35
2008,01,05,05,39,977.38
2008,01,05,05,40,977.38
2008,01,05,05,41,977.38
2008,01,05,05,42,977.45
2008,01,05,05,43,977.52
2008,01,05,05,44,977.53
2008,01,05,05,45,977.62
2008,01,05,05,46,977.68
2008,01,05,05,47,977.80
2008,01,05,05,48,977.91
2008,01,05,05,49,977.79
2008,01,05,05,50,977.72
2008,01,05,05,51,977.67
2008,01,05,05,52,977.55
2008,01,05,05,53,977.63
2008,01,05,05,54,977.75
2008,01,05,05,55,977.67
2008,01,05,05,56,977.55
2008,01,05,05,57,977.57
2008,01,05,05,58,977.48
2008,01,05,05,59,977.56
2008,01,05,06,00,977.65
2008,01,05,06,01,977.66
2008,01,05,06,02,977.80
2008,01,05,06,03,977.96
2008,01,05,06,04,977.92
2008,01,05,06,05,977.99
2008,01,05,06,06,977.96
2008,01,05,06,07,977.89
2008,01,05,06,08,977.88
2008,01,05,06,09,977.79
2008,01,05,06,10,977.81
2008,01,05,06,11,977.68
2008,01,05,06,12,977.83
2008,01,05,06,13,977.97
2008,01,05,06,14,978.09
2008,01,05,06,15,978.09
2008,01,05,06,16,978.01
2008,01,05,06,17,977.92
2008,01,05,06,18,977.89
2008,01,05,06,19,977.85
2008,01,05,06,20,977.79
2008,01,05,06,21,977.75
2008,01,05,06,22,977.75
2008,01,05,06,23,977.79
2008,01,05,06,24,977.79
2008,01,05,06,25,977.80
2008,01,05,06,26,977.92
2008,01,05,06,27,977.99
2008,01,05,06,28,977.92
2008,01,05,06,29,977.86
2008,01,05,06,30,977.99
2008,01,05,06,31,978.06
2008,01,05,06,32,977.99
2008,01,05,06,33,978.02
2008,01,05,06,34,977.92
2008,01,05,06,35,977.85
2008,01,05,06,36,977.79
2008,01,05,06,37,977.90
2008,01,05,06,38,977.99
2008,01,05,06,39,978.03
2008,01,05,06,40,978.12
2008,01,05,06,41,978.19
2008,01,05,06,42,978.26
2008,01,05,06,43,978.34
2008,01,05,06,44,978.43
2008,01,05,06,45,978.53
2008,01,05,06,46,978.60
2008,01,05,06,47,978.63
2008,01,05,06,48,978.60
2008,01,05,06,49,978.57
2008,01,05,06,50,978.49
2008,01,05,06,51,978.27
2008,01,05,06,52,978.39
2008,01,05,06,53,978.29
2008,01,05,06,54,978.29
2008,01,05,06,55,978.25
2008,01,05,06,56,978.16
2008,01,05,06,57,978.09
2008,01,05,06,58,978.06
2008,01,05,06,59,978.12
2008,01,05,07,00,978.20
2008,01,05,07,01,978.41
2008,01,05,07,02,978.50
2008,01,05,07,03,978.57
2008,01,05,07,04,978.50
2008,01,05,07,05,978.46
2008,01,05,07,06,978.47
2008,01,05,07,07,978.57
2008,01,05,07,08,978.50
2008,01,05,07,09,978.57
2008,01,05,07,10,978.60
2008,01,05,07,11,978.60
2008,01,05,07,12,978.60
2008,01,05,07,13,978.60
2008,01,05,07,14,978.57
2008,01,05,07,15,978.57
2008,01,05,07,16,978.57
2008,01,05,07,17,978.60
2008,01,05,07,18,978.63
2008,01,05,07,19,978.63
2008,01,05,07,20,978.63
2008,01,05,07,21,978.70
2008,01,05,07,22,978.70
2008,01,05,07,23,978.70
2008,01,05,07,24,978.73
2008,01,05,07,25,978.73
2008,01,05,07,26,978.72
2008,01,05,07,27,978.60
2008,01,05,07,28,978.53
2008,01,05,07,29,978.61
2008,01,05,07,30,978.70
2008,01,05,07,31,978.73
2008,01,05,07,32,978.81
2008,01,05,07,33,978.94
2008,01,05,07,34,978.97
2008,01,05,07,35,978.97
2008,01,05,07,36,979.01
2008,01,05,07,37,979.01
2008,01,05,07,38,979.07
2008,01,05,07,39,979.01
2008,01,05,07,40,978.97
2008,01,05,07,41,978.90
2008,01,05,07,42,978.94
2008,01,05,07,43,978.95
2008,01,05,07,44,979.07
2008,01,05,07,45,979.11
2008,01,05,07,46,979.18
2008,01,05,07,47,979.31
2008,01,05,07,48,979.38
2008,01,05,07,49,979.33
2008,01,05,07,50,979.21
2008,01,05,07,51,979.18
2008,01,05,07,52,979.34
2008,01,05,07,53,979.31
2008,01,05,07,54,979.38
2008,01,05,07,55,979.39
2008,01,05,07,56,979.51
2008,01,05,07,57,979.61
2008,01,05,07,58,979.68
2008,01,05,07,59,979.75
2008,01,05,08,00,979.75
2008,01,05,08,01,979.75
2008,01,05,08,02,979.82
2008,01,05,08,03,979.78
2008,01,05,08,04,979.81
2008,01,05,08,05,979.65
2008,01,05,08,06,979.68
2008,01,05,08,07,979.78
2008,01,05,08,08,979.78
2008,01,05,08,09,979.78
2008,01,05,08,10,979.78
2008,01,05,08,11,979.82
2008,01,05,08,12,979.78
2008,01,05,08,13,979.82
2008,01,05,08,14,979.85
2008,01,05,08,15,979.82
2008,01,05,08,16,979.89
2008,01,05,08,17,979.89
2008,01,05,08,18,979.95
2008,01,05,08,19,979.99
2008,01,05,08,20,979.99
2008,01,05,08,21,980.06
2008,01,05,08,22,980.02
2008,01,05,08,23,980.06
2008,01,05,08,24,980.02
2008,01,05,08,25,980.02
2008,01,05,08,26,979.99
2008,01,05,08,27,980.03
2008,01,05,08,28,980.12
2008,01,05,08,29,980.02
2008,01,05,08,30,980.07
2008,01,05,08,31,980.19
2008,01,05,08,32,980.26
2008,01,05,08,33,980.20
2008,01,05,08,34,980.29
2008,01,05,08,35,980.39
2008,01,05,08,36,980.43
2008,01,05,08,37,980.50
2008,01,05,08,38,980.43
2008,01,05,08,39,980.46
2008,01,05,08,40,980.56
2008,01,05,08,41,980.60
2008,01,05,08,42,980.63
2008,01,05,08,43,980.63
2008,01,05,08,44,980.70
2008,01,05,08,45,980.77
2008,01,05,08,46,980.73
2008,01,05,08,47,980.80
2008,01,05,08,48,980.77
2008,01,05,08,49,980.83
2008,01,05,08,50,980.90
2008,01,05,08,51,980.81
2008,01,05,08,52,980.90
2008,01,05,08,53,980.94
2008,01,05,08,54,980.99
2008,01,05,08,55,980.87
2008,01,05,08,56,981.07
2008,01,05,08,57,981.14
2008,01,05,08,58,981.07
2008,01,05,08,59,981.10
2008,01,05,09,00,981.17
2008,01,05,09,01,981.24
2008,01,05,09,02,981.31
2008,01,05,09,03,981.41
2008,01,05,09,04,981.48
2008,01,05,09,05,981.48
2008,01,05,09,06,981.44
2008,01,05,09,07,981.50
2008,01,05,09,08,981.41
2008,01,05,09,09,981.32
2008,01,05,09,10,981.45
2008,01,05,09,11,981.65
2008,01,05,09,12,981.58
2008,01,05,09,13,981.61
2008,01,05,09,14,981.58
2008,01,05,09,15,981.65
2008,01,05,09,16,981.71
2008,01,05,09,17,981.68
2008,01,05,09,18,981.71
2008,01,05,09,19,981.68
2008,01,05,09,20,981.60
2008,01,05,09,21,981.51
2008,01,05,09,22,981.51
2008,01,05,09,23,981.52
2008,01,05,09,24,981.65
2008,01,05,09,25,981.61
2008,01,05,09,26,981.68
2008,01,05,09,27,981.75
2008,01,05,09,28,981.75
2008,01,05,09,29,981.72
2008,01,05,09,30,981.85
2008,01,05,09,31,981.85
2008,01,05,09,32,981.95
2008,01,05,09,33,981.99
2008,01,05,09,34,981.92
2008,01,05,09,35,981.96
2008,01,05,09,36,982.05
2008,01,05,09,37,982.12
2008,01,05,09,38,982.13
2008,01,05,09,39,982.27
2008,01,05,09,40,982.36
2008,01,05,09,41,982.39
2008,01,05,09,42,982.36
2008,01,05,09,43,982.32
2008,01,05,09,44,982.36
2008,01,05,09,45,982.32
2008,01,05,09,46,982.29
2008,01,05,09,47,982.43
2008,01,05,09,48,982.49
2008,01,05,09,49,982.46
2008,01,05,09,50,982.46
2008,01,05,09,51,982.39
2008,01,05,09,52,982.49
2008,01,05,09,53,982.53
2008,01,05,09,54,982.53
2008,01,05,09,55,982.49
2008,01,05,09,56,982.53
2008,01,05,09,57,982.49
2008,01,05,09,58,982.49
2008,01,05,09,59,982.54
2008,01,05,10,00,982.66
2008,01,05,10,01,982.73
2008,01,05,10,02,982.80
2008,01,05,10,03,982.83
2008,01,05,10,04,982.90
2008,01,05,10,05,982.90
2008,01,05,10,06,982.93
2008,01,05,10,07,983.04
2008,01,05,10,08,983.00
2008,01,05,10,09,983.04
2008,01,05,10,10,983.04
2008,01,05,10,11,983.17
2008,01,05,10,12,983.20
2008,01,05,10,13,983.24
2008,01,05,10,14,983.31
2008,01,05,10,15,983.27
2008,01,05,10,16,983.31
2008,01,05,10,17,983.27
2008,01,05,10,18,983.27
2008,01,05,10,19,983.20
2008,01,05,10,20,983.20
2008,01,05,10,21,983.24
2008,01,05,10,22,983.17
2008,01,05,10,23,983.24
2008,01,05,10,24,983.17
2008,01,05,10,25,983.24
2008,01,05,10,26,983.31
2008,01,05,10,27,983.27
2008,01,05,10,28,983.34
2008,01,05,10,29,983.34
2008,01,05,10,30,983.31
2008,01,05,10,31,983.34
2008,01,05,10,32,983.48
2008,01,05,10,33,983.48
2008,01,05,10,34,983.51
2008,01,05,10,35,983.61
2008,01,05,10,36,983.71
2008,01,05,10,37,983.75
2008,01,05,10,38,983.81
2008,01,05,10,39,983.85
2008,01,05,10,40,983.88
2008,01,05,10,41,983.92
2008,01,05,10,42,983.95
2008,01,05,10,43,983.98
2008,01,05,10,44,983.92
2008,01,05,10,45,983.95
2008,01,05,10,46,983.88
2008,01,05,10,47,983.95
2008,01,05,10,48,983.92
2008,01,05,10,49,983.95
2008,01,05,10,50,983.92
2008,01,05,10,51,983.92
2008,01,05,10,52,983.85
2008,01,05,10,53,983.88
2008,01,05,10,54,983.92
2008,01,05,10,55,983.95
2008,01,05,10,56,983.98
2008,01,05,10,57,983.98
2008,01,05,10,58,984.05
2008,01,05,10,59,984.12
2008,01,05,11,00,984.12
2008,01,05,11,01,984.19
2008,01,05,11,02,984.19
2008,01,05,11,03,984.25
2008,01,05,11,04,984.19
2008,01,05,11,05,984.12
2008,01,05,11,06,984.15
2008,01,05,11,07,984.22
2008,01,05,11,08,984.25
2008,01,05,11,09,984.29
2008,01,05,11,10,984.29
2008,01,05,11,11,984.29
2008,01,05,11,12,984.29
2008,01,05,11,13,984.25
2008,01,05,11,14,984.22
2008,01,05,11,15,984.29
2008,01,05,11,16,984.29
2008,01,05,11,17,984.29
2008,01,05,11,18,984.29
2008,01,05,11,19,984.39
2008,01,05,11,20,984.42
2008,01,05,11,21,984.49
2008,01,05,11,22,984.53
2008,01,05,11,23,984.56
2008,01,05,11,24,984.56
2008,01,05,11,25,984.56
2008,01,05,11,26,984.69
2008,01,05,11,27,984.69
2008,01,05,11,28,984.76
2008,01,05,11,29,984.76
2008,01,05,11,30,984.83
2008,01,05,11,31,984.80
2008,01,05,11,32,984.84
2008,01,05,11,33,984.93
2008,01,05,11,34,984.97
2008,01,05,11,35,984.97
2008,01,05,11,36,985.03
2008,01,05,11,37,985.00
2008,01,05,11,38,985.03
2008,01,05,11,39,985.07
2008,01,05,11,40,985.07
2008,01,05,11,41,985.07
2008,01,05,11,42,985.07
2008,01,05,11,43,985.07
2008,01,05,11,44,985.10
2008,01,05,11,45,985.10
2008,01,05,11,46,985.03
2008,01,05,11,47,985.07
2008,01,05,11,48,985.07
2008,01,05,11,49,985.07
2008,01,05,11,50,985.07
2008,01,05,11,51,985.07
2008,01,05,11,52,985.10
2008,01,05,11,53,985.17
2008,01,05,11,54,985.21
2008,01,05,11,55,985.30
2008,01,05,11,56,985.37
2008,01,05,11,57,985.41
2008,01,05,11,58,985.44
2008,01,05,11,59,985.47
2008,01,05,12,00,985.51
2008,01,05,12,01,985.54
2008,01,05,12,02,985.51
2008,01,05,12,03,985.61
2008,01,05,12,04,985.64
2008,01,05,12,05,985.61
2008,01,05,12,06,985.64
2008,01,05,12,07,985.68
2008,01,05,12,08,985.68
2008,01,05,12,09,985.68
2008,01,05,12,10,985.71
2008,01,05,12,11,985.74
2008,01,05,12,12,985.78
2008,01,05,12,13,985.81
2008,01,05,12,14,985.85
2008,01,05,12,15,985.85
2008,01,05,12,16,985.81
2008,01,05,12,17,985.81
2008,01,05,12,18,985.74
2008,01,05,12,19,985.81
2008,01,05,12,20,985.81
2008,01,05,12,21,985.78
2008,01,05,12,22,985.81
2008,01,05,12,23,985.81
2008,01,05,12,24,985.85
2008,01,05,12,25,985.88
2008,01,05,12,26,985.88
2008,01,05,12,27,985.95
2008,01,05,12,28,985.91
2008,01,05,12,29,985.91
2008,01,05,12,30,985.98
2008,01,05,12,31,985.98
2008,01,05,12,32,986.02
2008,01,05,12,33,986.08
2008,01,05,12,34,986.02
2008,01,05,12,35,986.02
2008,01,05,12,36,986.08
2008,01,05,12,37,986.12
2008,01,05,12,38,986.08
2008,01,05,12,39,986.12
2008,01,05,12,40,986.15
2008,01,05,12,41,986.22
2008,01,05,12,42,986.25
2008,01,05,12,43,986.29
2008,01,05,12,44,986.25
2008,01,05,12,45,986.25
2008,01,05,12,46,986.29
2008,01,05,12,47,986.32
2008,01,05,12,48,986.32
2008,01,05,12,49,986.32
2008,01,05,12,50,986.35
2008,01,05,12,51,986.32
2008,01,05,12,52,986.35
2008,01,05,12,53,986.35
2008,01,05,12,54,986.32
2008,01,05,12,55,986.32
2008,01,05,12,56,986.35
2008,01,05,12,57,986.35
2008,01,05,12,58,986.39
2008,01,05,12,59,986.39
2008,01,05,13,00,986.46
2008,01,05,13,01,986.46
2008,01,05,13,02,986.49
2008,01,05,13,03,986.49
2008,01,05,13,04,986.52
2008,01,05,13,05,986.56
2008,01,05,13,06,986.56
2008,01,05,13,07,986.56
2008,01,05,13,08,986.59
2008,01,05,13,09,986.62
2008,01,05,13,10,986.66
2008,01,05,13,11,986.69
2008,01,05,13,12,986.76
2008,01,05,13,13,986.79
2008,01,05,13,14,986.76
2008,01,05,13,15,986.83
2008,01,05,13,16,986.83
2008,01,05,13,17,986.90
2008,01,05,13,18,986.90
2008,01,05,13,19,986.90
2008,01,05,13,20,986.90
2008,01,05,13,21,986.93
2008,01,05,13,22,986.90
2008,01,05,13,23,986.90
2008,01,05,13,24,986.90
2008,01,05,13,25,986.96
2008,01,05,13,26,986.96
2008,01,05,13,27,987.00
2008,01,05,13,28,987.00
2008,01,05,13,29,987.00
2008,01,05,13,30,987.03
2008,01,05,13,31,987.06
2008,01,05,13,32,987.06
2008,01,05,13,33,987.10
2008,01,05,13,34,987.17
2008,01,05,13,35,987.13
2008,01,05,13,36,987.20
2008,01,05,13,37,987.20
2008,01,05,13,38,987.20
2008,01,05,13,39,987.20
2008,01,05,13,40,987.20
2008,01,05,13,41,987.23
2008,01,05,13,42,987.23
2008,01,05,13,43,987.23
2008,01,05,13,44,987.20
2008,01,05,13,45,987.27
2008,01,05,13,46,987.23
2008,01,05,13,47,987.30
2008,01,05,13,48,987.30
2008,01,05,13,49,987.30
2008,01,05,13,50,987.30
2008,01,05,13,51,987.34
2008,01,05,13,52,987.30
2008,01,05,13,53,987.30
2008,01,05,13,54,987.30
2008,01,05,13,55,987.30
2008,01,05,13,56,987.34
2008,01,05,13,57,987.37
2008,01,05,13,58,987.34
2008,01,05,13,59,987.37
2008,01,05,14,00,987.37
2008,01,05,14,01,987.40
2008,01,05,14,02,987.37
2008,01,05,14,03,987.37
2008,01,05,14,04,987.37
2008,01,05,14,05,987.37
2008,01,05,14,06,987.37
2008,01,05,14,07,987.37
2008,01,05,14,08,987.37
2008,01,05,14,09,987.34
2008,01,05,14,10,987.34
2008,01,05,14,11,987.34
2008,01,05,14,12,987.30
2008,01,05,14,13,987.30
2008,01,05,14,14,987.34
2008,01,05,14,15,987.34
2008,01,05,14,16,987.37
2008,01,05,14,17,987.34
2008,01,05,14,18,987.34
2008,01,05,14,19,987.37
2008,01,05,14,20,987.44
2008,01,05,14,21,987.47
2008,01,05,14,22,987.54
2008,01,05,14,23,987.47
2008,01,05,14,24,987.54
2008,01,05,14,25,987.51
2008,01,05,14,26,987.51
2008,01,05,14,27,987.47
2008,01,05,14,28,987.40
2008,01,05,14,29,987.40
2008,01,05,14,30,987.51
2008,01,05,14,31,987.54
2008,01,05,14,32,987.51
2008,01,05,14,33,987.54
2008,01,05,14,34,987.61
2008,01,05,14,35,987.61
2008,01,05,14,36,987.57
2008,01,05,14,37,987.51
2008,01,05,14,38,987.54
2008,01,05,14,39,987.51
2008,01,05,14,40,987.51
2008,01,05,14,41,987.51
2008,01,05,14,42,987.54
2008,01,05,14,43,987.57
2008,01,05,14,44,987.74
2008,01,05,14,45,987.64
2008,01,05,14,46,987.57
2008,01,05,14,47,987.54
2008,01,05,14,48,987.61
2008,01,05,14,49,987.78
2008,01,05,14,50,987.81
2008,01,05,14,51,987.84
2008,01,05,14,52,987.91
2008,01,05,14,53,987.84
2008,01,05,14,54,987.81
2008,01,05,14,55,987.78
2008,01,05,14,56,987.81
2008,01,05,14,57,987.84
2008,01,05,14,58,987.81
2008,01,05,14,59,987.78
2008,01,05,15,00,987.64
2008,01,05,15,01,987.71
2008,01,05,15,02,987.81
2008,01,05,15,03,987.78
2008,01,05,15,04,987.78
2008,01,05,15,05,987.78
2008,01,05,15,06,987.78
2008,01,05,15,07,987.81
2008,01,05,15,08,987.84
2008,01,05,15,09,987.88
2008,01,05,15,10,987.88
2008,01,05,15,11,987.88
2008,01,05,15,12,987.88
2008,01,05,15,13,987.95
2008,01,05,15,14,987.95
2008,01,05,15,15,987.95
2008,01,05,15,16,987.98
2008,01,05,15,17,987.98
2008,01,05,15,18,987.91
2008,01,05,15,19,987.91
2008,01,05,15,20,987.98
2008,01,05,15,21,988.01
2008,01,05,15,22,987.98
2008,01,05,15,23,987.84
2008,01,05,15,24,987.84
2008,01,05,15,25,987.91
2008,01,05,15,26,987.95
2008,01,05,15,27,988.01
2008,01,05,15,28,988.08
2008,01,05,15,29,988.08
2008,01,05,15,30,988.08
2008,01,05,15,31,988.08
2008,01,05,15,32,988.15
2008,01,05,15,33,988.11
2008,01,05,15,34,988.11
2008,01,05,15,35,988.11
2008,01,05,15,36,988.11
2008,01,05,15,37,988.15
2008,01,05,15,38,988.18
2008,01,05,15,39,988.18
2008,01,05,15,40,988.18
2008,01,05,15,41,988.15
2008,01,05,15,42,988.15
2008,01,05,15,43,988.11
2008,01,05,15,44,988.11
2008,01,05,15,45,988.11
2008,01,05,15,46,988.18
2008,01,05,15,47,988.25
2008,01,05,15,48,988.28
2008,01,05,15,49,988.32
2008,01,05,15,50,988.32
2008,01,05,15,51,988.39
2008,01,05,15,52,988.52
2008,01,05,15,53,988.49
2008,01,05,15,54,988.45
2008,01,05,15,55,988.45
2008,01,05,15,56,988.49
2008,01,05,15,57,988.49
2008,01,05,15,58,988.52
2008,01,05,15,59,988.52
2008,01,05,16,00,988.55
2008,01,05,16,01,988.62
2008,01,05,16,02,988.62
2008,01,05,16,03,988.55
2008,01,05,16,04,988.59
2008,01,05,16,05,988.62
2008,01,05,16,06,988.66
2008,01,05,16,07,988.66
2008,01,05,16,08,988.62
2008,01,05,16,09,988.62
2008,01,05,16,10,988.66
2008,01,05,16,11,988.69
2008,01,05,16,12,988.72
2008,01,05,16,13,988.72
2008,01,05,16,14,988.72
2008,01,05,16,15,988.76
2008,01,05,16,16,988.83
2008,01,05,16,17,988.83
2008,01,05,16,18,988.86
2008,01,05,16,19,988.86
2008,01,05,16,20,988.93
2008,01,05,16,21,988.93
2008,01,05,16,22,988.93
2008,01,05,16,23,989.03
2008,01,05,16,24,989.00
2008,01,05,16,25,989.03
2008,01,05,16,26,989.03
2008,01,05,16,27,989.03
2008,01,05,16,28,989.03
2008,01,05,16,29,989.06
2008,01,05,16,30,989.03
2008,01,05,16,31,989.06
2008,01,05,16,32,989.13
2008,01,05,16,33,989.13
2008,01,05,16,34,989.13
2008,01,05,16,35,989.16
2008,01,05,16,36,989.20